EHI
0 0 0 0 0 0 0 0 0 0 0 1 4 6 6 7 7 7 7 7 7 6 6 7 7 7 10 12 12 12 12 10 9 8 8 7 7 6 7 7 8 8 7 5
0 0 0 0 0 0 0 0 0 0 0 2 4 5 6 6 7 7 6 6 6 5 6 7 7 9 10 11 10 10 10 10 9 9 9 9 8 7 5 4 4 4 3 2
0 0 0 0 0 0 0 0 0 1 1 2 3 3 4 5 6 6 5 5 5 4 4 4 6 9 10 10 9 9 9 9 8 9 11 12 11 9 6 3 2 1 0 0
0 0 0 0 0 0 0 0 1 1 1 1 2 3 3 4 5 6 5 5 4 2 2 3 6 8 9 9 8 9 9 7 7 8 11 13 14 12 9 5 3 1 0 0
0 0 0 0 0 0 0 0 1 1 1 1 3 4 3 3 6 7 7 5 3 2 2 3 5 7 8 7 7 8 7 6 7 10 12 13 15 15 12 9 7 5 3 2
0 0 0 0 0 0 0 0 0 0 1 2 3 3 2 2 5 7 8 7 5 4 4 4 3 4 5 5 5 6 7 7 10 12 13 13 14 15 14 12 11 9 7 6
0 0 0 0 0 0 0 0 0 1 2 3 3 3 2 2 3 5 6 7 6 5 4 3 2 2 3 4 5 6 7 9 12 13 13 12 12 12 13 13 13 11 10 8
0 0 0 0 0 0 0 0 0 1 3 4 5 3 3 4 4 4 4 5 5 4 3 2 1 2 3 4 5 5 5 7 9 11 11 10 10 11 12 13 13 12 11 10
0 0 0 0 0 0 0 0 0 1 2 4 5 3 3 4 4 4 4 5 4 3 2 2 1 2 2 3 4 4 4 4 7 9 10 10 11 12 13 13 13 13 12 11
0 0 0 0 0 0 0 0 0 0 1 3 3 2 2 2 2 2 3 3 3 3 3 3 3 3 2 2 2 3 4 4 6 9 9 9 11 13 14 13 12 11 10 9
0 0 0 0 0 0 0 0 0 0 1 1 1 1 2 2 1 1 1 1 2 3 3 4 4 4 3 2 2 3 4 4 6 8 9 9 9 10 10 10 8 7 7 8
0 0 0 0 0 0 0 0 0 0 0 0 1 2 3 2 1 0 0 0 1 3 3 3 4 4 3 3 3 3 3 3 4 6 7 7 7 6 5 4 3 2 4 6
0 0 0 0 0 0 0 0 0 0 0 0 1 3 4 3 1 0 0 0 1 2 3 3 3 3 3 3 3 3 3 3 3 4 5 4 4 3 3 2 1 1 2 2
0 0 0 0 0 0 0 0 0 0 0 0 1 3 4 2 0 0 0 0 0 1 3 3 3 3 3 3 3 3 2 2 2 2 2 2 2 2 2 2 2 1 0 0
0 0 0 0 0 0 0 0 0 0 0 0 0 1 2 1 0 0 0 0 0 1 3 4 3 2 1 2 2 1 1 1 1 1 1 2 2 2 1 1 1 1 0 0
0 0 0 0 0 0 0 0 0 0 0 0 0 0 0 0 0 0 1 1 1 1 3 4 4 2 1 1 1 0 0 0 0 0 0 2 3 2 1 0 0 0 0 0
0 0 0 0 0 0 0 0 0 0 0 0 0 0 0 0 0 0 1 2 2 1 2 2 2 1 0 0 0 0 0 0 0 0 1 2 3 3 2 0 0 0 0 0
0 0 0 0 0 0 0 0 0 0 0 0 0 0 0 0 0 0 1 1 1 1 0 0 0 0 0 0 0 0 0 0 0 0 1 2 3 2 1 0 0 0 0 0
1 0 0 0 0 0 0 0 0 0 0 0 0 0 0 0 0 0 0 0 0 0 0 0 0 0 0 0 0 0 0 0 0 0 0 1 2 1 0 0 0 0 0 0
1 0 0 0 0 0 0 0 0 0 0 0 0 0 0 0 0 0 0 0 0 0 0 0 0 0 0 0 0 0 0 0 0 0 0 0 0 0 0 0 0 0 0 0
1 0 0 0 0 0 0 0 0 0 0 0 0 0 0 0 0 0 0 0 0 0 0 0 0 0 0 0 0 0 0 0 0 0 0 0 0 0 0 1 0 0 0 0
0 0 0 0 0 0 0 0 0 0 0 0 0 0 0 0 0 0 0 0 0 0 0 0 0 0 0 0 0 0 0 0 0 0 0 0 0 0 0 0 0 0 0 0
0 0 0 0 0 0 0 0 0 0 0 0 0 0 0 0 0 0 0 0 0 0 0 0 0 0 0 0 0 0 0 0 0 0 0 0 0 0 0 0 0 0 0 0
0 0 0 0 0 0 0 0 0 0 0 0 0 0 0 0 0 0 0 0 0 0 0 0 0 0 0 0 0 0 0 0 0 0 0 0 0 0 0 0 0 0 0 0
0 0 0 0 0 0 0 0 0 0 0 0 0 0 0 0 0 0 0 0 0 0 0 0 0 0 0 0 0 0 0 0 0 0 0 0 0 0 0 0 0 0 0 0
0 0 0 0 0 0 0 0 0 0 0 0 0 0 0 0 0 0 0 0 0 0 0 0 0 0 0 0 0 0 0 0 0 0 0 0 0 0 0 0 0 0 0 0
0 0 0 0 0 0 0 0 0 0 0 0 0 0 0 0 0 0 0 0 0 0 0 0 0 0 0 0 0 0 0 0 0 0 0 0 0 0 0 0 0 0 0 0
Wind_Speed
3 2 3 2 2 4 5 7 8 7 6 7 5 4 3 3 2 2 2 2 3 3 3 2 2 2 2 2 1 2 3 3 3 3 3 3 3 3 3 3 3 3 3 3
1 0 2 1 1 2 3 3 3 3 5 4 2 2 2 2 3 3 3 3 3 3 3 3 3 2 2 2 1 2 2 3 3 3 3 3 3 3 3 3 3 3 3 3
2 2 2 2 3 3 2 1 4 5 5 2 2 3 3 3 3 4 4 3 3 4 4 4 4 3 3 3 2 2 2 1 2 3 3 3 3 3 3 3 3 3 3 3
3 2 4 6 1 3 3 1 2 3 3 4 4 3 1 2 4 4 4 4 4 4 4 3 2 2 2 2 3 2 2 2 2 2 3 2 3 3 3 2 3 3 3 4
4 3 3 4 1 3 3 1 1 2 1 2 3 4 3 1 2 3 4 4 4 3 3 3 3 2 3 2 2 2 2 2 3 3 3 3 3 3 3 2 2 3 3 3
4 4 6 6 2 1 4 2 2 3 3 2 4 2 3 2 0 1 1 1 1 1 2 2 1 2 3 2 2 3 3 3 2 3 3 3 3 3 2 2 3 3 2 3
4 3 6 4 3 2 4 5 2 3 3 3 3 3 2 1 2 1 1 1 2 2 2 1 1 3 2 2 2 2 1 1 2 2 3 3 2 2 2 2 2 2 2 2
4 3 6 2 2 4 5 1 1 2 3 3 2 2 2 2 2 2 3 3 3 3 3 2 2 3 2 0 1 1 1 2 2 2 2 2 2 2 2 2 2 2 1 1
6 6 3 1 2 2 2 2 2 3 3 3 3 3 3 2 2 3 3 3 3 3 3 3 3 3 2 1 1 0 1 1 1 1 1 2 2 2 2 2 2 1 1 2
1 3 2 2 1 1 1 2 2 3 3 3 3 4 4 3 3 3 3 2 3 4 3 3 2 2 0 1 1 1 1 0 0 2 1 1 1 2 2 2 2 2 2 3
1 3 2 2 2 1 1 2 3 3 2 4 5 4 4 3 2 2 2 1 2 2 2 1 2 2 2 2 2 2 1 1 1 2 2 1 1 1 2 3 4 4 4 4
5 5 4 4 2 1 1 1 2 3 2 2 4 5 4 3 2 2 2 1 2 2 1 1 2 2 2 2 1 2 1 1 0 1 1 1 1 1 1 2 3 5 5 4
4 3 3 2 1 2 2 1 2 3 3 2 2 3 4 3 2 2 2 1 1 1 0 1 1 2 2 1 2 1 0 0 0 0 0 1 1 1 2 2 2 2 3 3
2 2 2 0 0 1 2 3 3 3 2 3 2 3 3 3 2 2 1 1 1 1 0 0 0 1 1 0 1 0 0 1 1 1 1 1 1 2 2 2 2 2 2 3
0 2 3 2 2 2 2 3 4 3 2 2 2 3 3 3 2 1 1 0 1 1 1 0 1 2 1 0 1 1 1 1 1 1 1 2 2 2 2 2 2 2 2 2
2 3 3 3 2 1 2 2 2 1 1 1 1 1 1 2 2 1 0 1 1 1 2 1 2 3 2 0 0 1 1 2 2 1 2 2 1 2 2 2 2 2 2 2
4 3 3 3 2 1 1 2 2 2 1 1 1 1 1 2 2 1 1 1 1 2 2 2 3 2 1 1 1 1 1 2 2 1 1 2 2 2 2 2 2 3 3 3
5 6 6 6 5 3 2 2 2 2 2 1 1 1 1 2 2 2 2 1 0 1 2 2 2 2 1 1 1 1 1 1 1 2 2 2 2 2 2 2 3 3 3 2
3 3 3 4 4 4 3 2 2 2 1 1 2 2 1 2 2 2 1 0 0 2 3 3 4 2 2 2 1 1 1 1 1 2 2 2 2 2 2 2 3 3 3 2
3 3 3 3 2 3 2 2 2 1 1 1 2 1 1 1 1 1 1 1 2 3 3 3 3 2 2 3 2 1 1 2 2 2 2 2 2 2 2 3 3 3 3 2
3 3 3 2 1 1 2 2 2 1 1 1 2 2 2 1 1 1 1 2 4 3 3 3 2 2 2 2 2 1 2 2 2 2 2 2 2 2 2 3 3 3 3 3
2 2 2 1 1 1 1 1 2 2 1 1 1 1 1 1 1 1 2 3 4 4 3 2 2 3 3 3 2 2 2 3 3 2 2 3 3 3 3 3 4 4 4 3
1 1 1 1 1 1 0 0 1 1 1 1 1 2 2 2 2 2 3 3 3 4 3 3 4 5 5 3 2 3 3 3 3 3 3 3 3 3 4 4 4 4 4 4
1 0 1 1 1 2 0 1 1 1 1 1 1 2 2 2 2 2 3 4 4 5 3 4 5 5 5 2 2 3 3 3 3 3 3 3 3 4 4 4 4 4 4 4
1 1 1 1 1 1 1 1 0 1 1 1 1 2 2 2 2 3 2 3 4 4 4 5 6 6 3 2 3 3 3 3 3 3 3 3 4 4 4 4 4 4 4 4
1 1 0 0 0 0 0 1 0 0 1 1 2 2 2 2 2 2 2 3 4 4 4 3 4 4 3 3 4 4 4 3 4 4 4 4 4 4 4 4 5 4 4 4
2 2 2 2 2 1 1 1 0 1 1 1 2 2 2 2 2 2 2 2 3 3 3 3 3 3 3 3 4 4 3 3 3 3 4 4 4 4 4 5 4 4 4 4
Wind_Direction
224 223 158 176 202 174 176 183 184 216 216 243 235 206 190 170 155 155 162 159 165 167 170 164 165 173 184 195 190 179 172 183 199 196 187 182 183 182 177 179 184 177 174 179
333 306 146 110 336 168 182 180 195 195 247 243 190 139 148 159 163 185 206 196 186 177 174 181 188 189 176 177 171 147 167 188 182 168 172 179 181 179 173 177 174 163 171 178
221 280 89 271 244 199 179 179 182 208 235 173 142 168 189 194 194 206 216 210 203 201 199 203 203 194 190 186 156 141 151 156 157 171 173 176 174 162 178 186 180 181 187 186
142 119 206 235 234 169 155 199 215 218 217 180 171 163 172 183 188 211 217 215 219 212 211 211 203 192 173 147 139 150 163 174 171 171 182 177 165 175 187 187 189 195 201 202
128 164 247 282 237 170 166 263 263 200 196 127 124 78 17 357 188 211 219 210 212 209 205 190 184 176 147 140 145 155 192 203 193 184 183 175 183 194 191 184 194 201 201 202
129 156 216 236 250 202 119 274 262 181 176 135 108 107 267 313 316 208 202 183 170 150 121 131 164 140 139 162 170 201 216 218 199 187 184 184 195 197 190 185 203 203 211 216
143 190 253 257 280 121 158 230 220 171 167 152 163 196 206 23 31 53 78 83 95 106 102 112 134 129 141 151 209 232 218 193 185 187 186 181 181 184 177 181 183 192 209 237
144 177 246 276 112 168 208 215 159 156 148 144 145 115 85 60 47 52 59 61 77 89 75 53 81 107 106 200 271 257 181 179 188 187 186 173 169 179 167 166 174 194 203 258
183 208 249 240 202 231 162 169 186 163 160 149 139 121 99 85 76 64 62 54 61 89 84 62 65 90 102 298 324 14 169 198 190 161 165 156 160 167 165 169 183 224 231 249
243 280 292 286 310 338 172 183 176 158 152 145 144 137 121 107 85 69 62 64 65 74 72 50 35 50 78 321 99 125 163 176 119 137 134 133 149 168 179 190 204 219 235 247
265 284 329 333 335 331 34 94 102 100 118 145 136 130 124 115 99 87 68 71 90 95 84 43 31 17 14 24 76 100 93 87 123 150 151 160 172 198 207 216 212 214 225 224
213 217 192 249 285 351 86 122 135 118 96 108 138 144 134 133 128 115 108 95 88 87 70 21 20 7 2 25 80 107 96 100 160 161 144 160 159 316 293 249 251 234 224 220
212 199 188 233 344 45 102 103 109 120 136 128 114 132 131 130 128 119 115 116 126 130 102 41 11 340 334 14 66 83 135 220 212 170 167 181 200 227 279 305 308 263 245 242
197 126 102 116 74 56 96 98 92 83 89 115 124 123 125 130 135 137 164 198 175 131 128 141 238 298 303 7 106 119 301 296 261 230 227 217 229 239 243 261 288 298 287 266
171 140 158 135 77 70 84 90 85 76 71 79 107 125 135 147 162 183 207 129 87 65 13 345 291 286 287 211 181 220 226 246 245 238 239 230 233 239 245 252 259 276 297 295
130 97 108 110 125 121 98 107 120 144 132 135 131 154 162 156 154 151 99 120 138 225 256 258 269 279 289 254 233 260 258 270 274 253 253 243 235 241 243 246 253 260 266 273
135 146 149 155 171 171 166 178 179 181 168 167 184 172 129 113 96 54 326 289 224 243 251 245 266 286 290 249 211 246 268 282 290 292 266 253 245 243 245 246 253 261 262 258
182 182 176 171 174 172 174 171 169 171 184 197 154 121 127 148 185 228 255 281 331 326 303 284 278 290 290 272 235 241 254 271 277 274 274 267 259 252 248 249 257 263 273 270
153 154 159 159 160 158 167 178 190 202 192 158 152 168 185 196 206 225 229 114 323 292 290 289 287 282 277 267 254 220 234 258 279 283 281 279 275 272 263 258 260 262 262 263
122 129 134 130 136 149 171 182 174 179 182 165 157 147 174 238 216 206 177 242 253 252 266 276 275 276 274 268 267 240 246 256 266 275 278 278 275 274 269 267 270 273 270 262
132 127 131 139 155 171 175 166 166 195 213 175 177 194 220 256 255 217 212 281 285 273 267 272 271 271 266 259 258 243 241 246 253 260 265 268 272 272 275 277 277 275 270 267
128 130 145 155 150 185 210 177 184 190 189 203 204 195 193 252 278 278 256 247 266 278 276 271 265 259 253 253 247 247 247 244 245 248 252 258 261 262 266 270 270 272 272 270
121 137 155 170 184 203 282 132 173 183 188 207 218 221 221 230 227 231 270 270 264 269 269 267 270 266 261 259 250 247 248 248 246 246 245 248 253 255 256 260 265 270 274 273
106 136 188 182 127 115 124 277 261 236 225 236 244 242 232 244 270 260 252 269 276 277 274 274 276 273 267 259 252 250 249 247 248 249 249 252 255 256 255 256 259 265 268 271
70 54 72 95 115 176 219 236 22 357 338 314 302 287 269 242 250 275 282 280 283 286 289 283 276 273 266 256 252 252 250 246 246 245 247 251 256 260 262 262 260 260 264 267
53 67 94 146 168 175 127 105 93 321 320 322 315 308 300 291 282 287 290 290 293 294 293 291 288 282 274 264 260 258 257 255 252 250 250 253 258 260 262 264 269 267 264 261
41 47 54 38 20 26 75 110 107 307 289 277 294 308 312 311 308 306 302 300 303 299 297 294 286 280 280 276 270 266 264 261 258 253 251 251 255 257 260 262 264 267 269 265